TimeCDT,TemperatureF,Dew PointF,Humidity,Sea Level PressureIn,VisibilityMPH,Wind Direction,Wind SpeedMPH,Gust SpeedMPH,PrecipitationIn,Events,Conditions,WindDirDegrees,DateUTC
12:15 AM,74.5,64.9,72,30.09,10.0,South,5.8,-,N/A,,Clear,180,2013-08-29 05:15:00
12:35 AM,73.8,65.3,75,30.09,10.0,South,4.6,-,N/A,,Clear,180,2013-08-29 05:35:00
12:55 AM,73.0,65.7,78,30.09,10.0,Calm,Calm,-,N/A,,Clear,0,2013-08-29 05:55:00
1:15 AM,72.1,66.2,82,30.09,10.0,Calm,Calm,-,N/A,,Clear,0,2013-08-29 06:15:00
1:35 AM,71.6,66.4,84,30.09,10.0,Calm,Calm,-,N/A,,Clear,0,2013-08-29 06:35:00
1:55 AM,70.3,67.1,89,30.09,10.0,Calm,Calm,-,N/A,,Clear,0,2013-08-29 06:55:00
2:15 AM,69.4,68.5,97,30.10,10.0,Calm,Calm,-,N/A,,Clear,0,2013-08-29 07:15:00
2:35 AM,69.4,68.7,98,30.10,10.0,Calm,Calm,-,N/A,,Scattered Clouds,0,2013-08-29 07:35:00
2:55 AM,69.8,67.8,93,30.10,10.0,Calm,Calm,-,N/A,,Scattered Clouds,0,2013-08-29 07:55:00
3:15 AM,70.7,66.0,85,30.10,10.0,Calm,Calm,-,N/A,,Scattered Clouds,0,2013-08-29 08:15:00
3:35 AM,69.3,67.3,93,30.10,10.0,Calm,Calm,-,N/A,,Scattered Clouds,0,2013-08-29 08:35:00
3:55 AM,68.9,68.2,98,30.09,10.0,Calm,Calm,-,N/A,,Scattered Clouds,0,2013-08-29 08:55:00
4:15 AM,69.3,67.5,94,30.09,10.0,Calm,Calm,-,N/A,,Clear,0,2013-08-29 09:15:00
4:35 AM,68.5,66.9,95,30.09,10.0,Calm,Calm,-,N/A,,Clear,0,2013-08-29 09:35:00
4:55 AM,69.6,67.3,92,30.09,10.0,Calm,Calm,-,N/A,,Clear,0,2013-08-29 09:55:00
5:15 AM,68.7,66.9,94,30.09,10.0,Calm,Calm,-,N/A,,Clear,0,2013-08-29 10:15:00
5:35 AM,67.6,67.6,100,30.09,10.0,Calm,Calm,-,N/A,,Scattered Clouds,0,2013-08-29 10:35:00
5:55 AM,68.2,67.8,99,30.10,10.0,Calm,Calm,-,N/A,,Mostly Cloudy,0,2013-08-29 10:55:00
6:15 AM,68.0,68.0,100,30.10,10.0,Calm,Calm,-,N/A,,Mostly Cloudy,0,2013-08-29 11:15:00
6:35 AM,68.0,68.0,100,30.11,10.0,Calm,Calm,-,N/A,,Mostly Cloudy,0,2013-08-29 11:35:00
6:55 AM,68.0,68.0,100,30.11,10.0,Calm,Calm,-,N/A,,Scattered Clouds,0,2013-08-29 11:55:00
7:15 AM,67.5,67.5,100,30.11,10.0,Calm,Calm,-,N/A,,Scattered Clouds,0,2013-08-29 12:15:00
7:35 AM,68.2,68.2,100,30.12,10.0,Calm,Calm,-,N/A,,Clear,0,2013-08-29 12:35:00
7:55 AM,69.6,69.6,100,30.12,10.0,Calm,Calm,-,N/A,,Clear,0,2013-08-29 12:55:00
8:15 AM,72.3,70.9,95,30.12,10.0,Calm,Calm,-,N/A,,Scattered Clouds,0,2013-08-29 13:15:00
8:35 AM,76.3,70.5,82,30.12,10.0,Calm,Calm,-,N/A,,Clear,0,2013-08-29 13:35:00
8:55 AM,79.5,70.3,73,30.13,10.0,Calm,Calm,-,N/A,,Clear,0,2013-08-29 13:55:00
9:15 AM,81.3,68.2,64,30.13,10.0,Calm,Calm,-,N/A,,Clear,0,2013-08-29 14:15:00
9:35 AM,82.9,65.8,56,30.13,10.0,Calm,Calm,-,N/A,,Clear,0,2013-08-29 14:35:00
9:55 AM,84.4,63.1,49,30.13,10.0,Calm,Calm,-,N/A,,Clear,0,2013-08-29 14:55:00
10:15 AM,85.6,60.4,42,30.13,10.0,Calm,Calm,-,N/A,,Clear,0,2013-08-29 15:15:00
10:35 AM,86.5,60.1,41,30.13,10.0,Calm,Calm,-,N/A,,Clear,0,2013-08-29 15:35:00
10:55 AM,88.0,58.3,36,30.13,10.0,ESE,3.5,-,N/A,,Clear,110,2013-08-29 15:55:00
11:15 AM,88.9,60.1,38,30.13,10.0,South,5.8,-,N/A,,Clear,180,2013-08-29 16:15:00
11:35 AM,89.4,59.5,36,30.13,10.0,SE,4.6,-,N/A,,Clear,140,2013-08-29 16:35:00
11:55 AM,89.2,60.1,37,30.12,10.0,South,5.8,-,N/A,,Clear,170,2013-08-29 16:55:00
12:15 PM,90.1,58.1,34,30.12,10.0,Calm,Calm,-,N/A,,Clear,0,2013-08-29 17:15:00
12:35 PM,90.9,59.7,35,30.11,10.0,SE,5.8,-,N/A,,Scattered Clouds,130,2013-08-29 17:35:00
12:55 PM,91.0,58.3,33,30.11,10.0,ESE,5.8,-,N/A,,Scattered Clouds,120,2013-08-29 17:55:00
1:15 PM,91.9,57.7,32,30.10,10.0,East,8.1,-,N/A,,Scattered Clouds,100,2013-08-29 18:15:00
1:35 PM,92.3,58.5,32,30.09,10.0,ESE,8.1,-,N/A,,Clear,110,2013-08-29 18:35:00
1:55 PM,92.7,57.0,30,30.09,10.0,ESE,8.1,-,N/A,,Mostly Cloudy,110,2013-08-29 18:55:00
2:15 PM,93.0,57.2,30,30.08,10.0,ENE,9.2,-,N/A,,Scattered Clouds,60,2013-08-29 19:15:00
2:35 PM,91.4,57.0,31,30.07,10.0,Calm,Calm,-,N/A,,Scattered Clouds,0,2013-08-29 19:35:00
2:55 PM,93.2,56.7,29,30.06,10.0,NE,4.6,-,N/A,,Clear,50,2013-08-29 19:55:00
3:15 PM,93.7,56.7,29,30.05,10.0,South,4.6,-,N/A,,Scattered Clouds,170,2013-08-29 20:15:00
3:35 PM,92.8,56.5,29,30.05,10.0,SSW,5.8,-,N/A,,Scattered Clouds,200,2013-08-29 20:35:00
3:55 PM,94.1,55.9,28,30.04,10.0,Calm,Calm,-,N/A,,Scattered Clouds,0,2013-08-29 20:55:00
4:15 PM,93.4,55.0,27,30.04,10.0,Calm,Calm,-,N/A,,Scattered Clouds,0,2013-08-29 21:15:00
4:35 PM,93.7,55.9,28,30.04,10.0,East,4.6,-,N/A,,Mostly Cloudy,90,2013-08-29 21:35:00
4:55 PM,94.1,56.3,28,30.03,10.0,SSE,3.5,-,N/A,,Scattered Clouds,150,2013-08-29 21:55:00
5:15 PM,93.7,55.8,28,30.02,10.0,SW,3.5,-,N/A,,Clear,230,2013-08-29 22:15:00
5:35 PM,93.7,56.1,28,30.02,10.0,East,5.8,-,N/A,,Scattered Clouds,80,2013-08-29 22:35:00
5:55 PM,93.7,55.6,28,30.02,10.0,ESE,4.6,-,N/A,,Clear,110,2013-08-29 22:55:00
6:15 PM,93.0,56.5,29,30.02,10.0,SSE,4.6,-,N/A,,Clear,150,2013-08-29 23:15:00
6:35 PM,92.5,57.7,31,30.02,10.0,SSE,4.6,-,N/A,,Clear,160,2013-08-29 23:35:00
6:55 PM,90.5,61.5,38,30.02,10.0,Calm,Calm,-,N/A,,Clear,0,2013-08-29 23:55:00
7:15 PM,84.9,68.0,57,30.02,10.0,Calm,Calm,-,N/A,,Clear,0,2013-08-30 00:15:00
7:35 PM,82.8,68.2,61,30.02,10.0,Calm,Calm,-,N/A,,Clear,0,2013-08-30 00:35:00
7:55 PM,81.3,68.0,64,30.02,10.0,South,3.5,-,N/A,,Clear,180,2013-08-30 00:55:00
8:15 PM,78.3,68.4,71,30.02,10.0,Calm,Calm,-,N/A,,Clear,0,2013-08-30 01:15:00
8:35 PM,77.4,68.4,74,30.03,10.0,Calm,Calm,-,N/A,,Clear,0,2013-08-30 01:35:00
8:55 PM,75.9,68.7,78,30.03,10.0,Calm,Calm,-,N/A,,Clear,0,2013-08-30 01:55:00
9:15 PM,75.4,68.5,79,30.03,10.0,Calm,Calm,-,N/A,,Clear,0,2013-08-30 02:15:00
9:35 PM,74.7,68.9,82,30.04,10.0,Calm,Calm,-,N/A,,Clear,0,2013-08-30 02:35:00
9:55 PM,79.3,64.9,61,30.05,10.0,SSE,6.9,-,N/A,,Clear,150,2013-08-30 02:55:00
10:15 PM,79.9,66.2,63,30.05,10.0,SSE,8.1,-,N/A,,Clear,160,2013-08-30 03:15:00
10:35 PM,78.4,67.1,68,30.05,10.0,South,5.8,-,N/A,,Clear,170,2013-08-30 03:35:00
10:55 PM,77.7,67.1,70,30.05,10.0,South,5.8,-,N/A,,Clear,170,2013-08-30 03:55:00
11:15 PM,77.0,67.1,71,30.05,10.0,South,5.8,-,N/A,,Clear,170,2013-08-30 04:15:00
11:35 PM,76.6,67.3,73,30.05,10.0,South,4.6,-,N/A,,Clear,180,2013-08-30 04:35:00
11:55 PM,74.7,67.8,79,30.05,10.0,South,3.5,-,N/A,,Clear,180,2013-08-30 04:55:00